Theta_e
328 326 322 322 325 323 323 320 315 311 312 318 316 322 320 320 320 321 320 318 315 315 315 315 314 313 313 312 311 310 311 312 313 313 315 316 318 321
321 322 320 319 321 323 323 321 319 315 311 317 316 320 321 320 320 320 319 320 316 315 315 314 313 312 311 310 309 309 308 309 310 311 312 312 316 320
321 319 318 320 321 321 322 321 320 318 313 316 317 319 321 320 319 319 318 318 318 315 315 314 312 311 310 310 309 307 306 307 307 308 309 310 313 317
318 318 317 318 321 324 321 321 320 321 317 315 317 314 317 319 318 317 316 316 316 315 315 313 312 310 309 309 308 306 305 304 304 306 306 307 309 312
317 317 318 320 320 319 320 321 321 320 319 314 312 314 314 316 314 316 316 317 314 316 315 314 312 311 309 308 307 305 303 303 302 303 304 304 305 307
316 317 317 317 318 319 319 322 321 319 319 314 310 311 312 314 311 311 311 313 312 311 315 314 312 312 310 308 308 306 303 302 301 301 301 301 301 302
316 315 315 310 307 309 315 320 320 316 313 311 309 310 309 307 307 310 309 311 313 311 312 311 314 311 311 310 307 306 304 302 301 301 301 300 299 299
313 313 312 310 306 305 305 306 308 316 312 310 309 308 309 307 308 309 310 309 306 312 311 307 312 309 310 309 305 304 303 302 302 301 300 300 300 298
314 313 310 309 311 312 305 304 304 305 304 315 310 308 306 307 310 311 311 310 308 309 310 306 309 310 309 308 304 303 302 301 301 300 300 299 300 298
314 314 314 313 311 312 312 311 310 311 313 310 310 308 307 308 311 312 312 313 311 309 311 304 307 309 310 311 304 303 302 301 300 300 299 299 299 298
312 313 312 310 296 299 311 310 309 308 300 301 299 299 298 298 301 309 306 305 303 305 308 307 306 306 308 306 308 304 302 301 300 300 299 299 298 299
310 309 297 304 296 298 312 311 309 309 310 310 310 307 305 305 303 311 307 303 303 302 306 306 305 305 302 306 306 305 304 302 301 300 299 299 297 300
309 307 305 295 295 296 300 311 306 308 304 310 307 306 307 307 307 309 310 306 303 303 306 307 305 304 304 303 305 304 302 302 301 303 300 298 298 297
309 308 302 294 293 295 300 294 295 298 308 307 304 303 303 304 306 308 310 310 309 307 309 309 304 304 303 302 300 304 306 307 307 302 304 301 299 298
310 300 294 293 293 296 295 296 296 307 306 304 303 302 303 305 307 308 309 311 310 308 308 308 304 304 304 302 301 301 301 303 305 303 303 301 300 298
298 300 299 299 297 300 301 304 306 306 305 304 303 303 304 304 303 304 304 304 303 302 307 309 308 303 298 300 300 299 301 299 303 303 303 303 302 300
305 303 304 304 304 304 304 305 305 305 304 304 303 302 301 302 302 303 302 302 300 300 301 304 309 306 302 300 296 298 299 300 302 303 303 300 301 301
305 305 304 304 303 303 302 302 302 302 303 303 302 301 300 300 301 301 301 300 299 300 300 301 302 302 301 298 297 296 298 299 300 302 302 299 299 300
306 305 304 303 302 303 302 302 301 302 304 303 301 300 300 300 301 299 299 299 298 299 300 300 300 298 296 293 297 294 296 297 298 299 301 300 297 299
306 304 303 302 302 302 301 301 301 302 302 301 301 300 300 299 299 297 298 298 298 298 298 298 298 298 296 294 294 294 290 297 296 295 297 301 298 294
304 303 303 302 302 302 302 302 302 301 301 301 300 299 300 300 299 299 297 289 292 298 296 297 298 289 300 300 295 295 296 292 295 296 294 294 294 294
303 302 301 301 301 302 301 300 298 299 300 300 299 299 299 299 298 298 297 296 297 298 297 298 299 299 297 295 294 295 295 297 293 293 293 292 291 288
301 301 300 300 301 301 301 300 300 299 299 299 299 299 299 298 299 298 297 296 296 296 296 297 297 297 296 295 292 294 295 295 295 296 296 292 292 293
Wind_Speed
6 5 4 3 1 3 3 3 6 6 5 2 5 7 8 8 12 13 12 12 6 9 13 16 20 22 25 28 31 33 33 34 35 35 35 35 35 35
5 5 3 3 2 2 2 3 4 5 5 4 6 7 9 9 11 12 12 9 9 12 12 13 14 19 25 28 31 33 34 35 36 35 36 35 36 34
7 6 5 3 2 3 2 2 3 4 5 6 6 7 8 10 11 11 11 10 6 12 6 8 11 18 24 26 29 33 35 35 36 35 37 37 35 33
7 6 5 4 4 2 2 3 4 3 7 5 6 7 8 10 10 11 10 9 10 9 3 5 10 17 22 24 27 32 31 33 35 35 38 38 38 37
6 6 6 5 4 5 4 2 1 2 3 4 5 6 7 9 11 10 9 9 9 12 6 10 12 15 20 23 28 32 32 32 33 35 37 37 37 37
7 6 5 5 5 4 4 1 3 3 1 4 5 5 8 10 9 10 9 9 8 12 8 11 10 11 15 24 30 33 33 32 33 35 33 33 35 38
8 7 8 8 10 8 7 5 4 4 4 4 5 6 8 10 11 10 10 10 9 12 12 11 9 7 13 20 25 31 31 33 32 33 31 30 32 34
8 8 8 9 9 9 8 8 9 7 6 7 6 8 10 10 9 10 9 11 10 11 13 11 8 9 9 14 24 26 28 31 30 32 32 29 28 32
8 7 6 8 4 9 7 7 6 6 5 6 7 8 8 10 9 9 10 10 8 11 12 10 11 9 9 12 23 23 25 27 30 31 33 30 27 27
9 7 8 7 6 2 5 6 6 6 6 7 7 7 8 10 10 10 8 9 5 10 13 10 11 9 9 12 21 22 24 25 28 31 32 35 25 25
9 8 9 8 5 6 4 6 5 7 6 7 4 4 4 6 8 9 9 9 9 9 11 11 9 9 12 10 12 19 21 23 23 26 30 31 31 24
10 9 14 9 5 5 4 5 5 5 5 5 4 1 1 2 0 8 9 9 9 6 12 10 9 9 7 10 11 10 11 21 21 22 26 29 30 15
9 8 9 5 7 8 9 4 5 1 4 1 4 4 5 5 7 7 9 8 9 9 11 12 9 9 8 9 10 8 9 11 11 14 21 25 26 22
9 9 9 5 9 8 5 1 3 8 4 3 4 5 6 6 7 7 6 7 7 8 10 14 9 9 9 9 10 11 9 10 12 12 14 18 23 23
9 13 13 10 13 9 3 7 10 3 4 4 5 5 5 6 5 4 4 5 7 8 9 11 11 11 10 10 11 11 12 11 10 8 10 12 14 14
15 11 8 6 8 7 8 4 5 5 4 5 4 4 4 4 5 5 5 5 5 6 7 6 8 11 12 11 11 11 11 11 11 10 9 10 12 14
11 10 9 7 7 6 5 5 5 4 4 4 4 4 5 5 6 5 6 5 6 7 7 6 6 9 10 14 12 11 12 11 11 11 11 10 10 13
9 8 7 7 6 6 6 6 6 4 4 4 4 4 6 6 6 5 5 6 6 7 7 8 8 4 5 14 19 12 12 12 11 10 11 12 12 12
7 7 7 6 5 5 6 5 6 5 3 3 4 5 5 5 3 5 5 5 6 7 7 8 8 8 9 10 11 16 12 12 12 11 9 10 11 10
6 7 7 7 6 6 6 6 6 5 4 3 4 5 5 5 5 6 6 6 5 6 6 7 9 9 9 9 9 9 12 11 12 13 13 9 9 12
7 7 7 7 6 6 6 5 5 4 3 3 4 4 4 4 5 4 5 3 4 6 6 7 6 7 6 5 7 9 9 9 10 11 12 11 11 11
8 8 8 7 6 7 7 6 7 5 5 4 4 5 4 4 5 5 5 5 5 5 5 5 5 6 6 8 8 10 9 7 8 11 14 8 10 10
9 8 8 8 7 7 7 6 5 5 4 4 4 4 4 4 4 4 4 5 6 5 5 4 5 5 6 6 5 8 11 10 8 8 8 9 9 9
Wind_Direction
117 121 91 87 43 30 7 1 334 339 350 88 329 33 356 347 31 348 355 346 51 22 3 355 359 359 359 355 354 353 352 349 346 348 346 345 346 335
121 113 108 95 139 63 28 17 355 336 318 19 358 19 348 347 18 358 3 329 68 50 4 1 358 6 4 359 359 358 359 353 351 354 352 356 352 349
125 123 112 161 99 107 68 11 348 341 319 9 17 27 343 356 359 359 359 355 29 58 342 349 8 18 10 2 3 3 4 359 356 357 0 1 9 12
130 127 135 123 139 79 79 2 14 30 335 341 28 354 8 16 1 7 353 355 342 42 282 352 45 27 13 4 8 7 6 3 360 3 5 9 12 22
123 128 122 126 84 67 24 343 46 23 2 349 357 9 357 14 3 12 6 351 7 2 348 92 58 33 20 9 12 11 9 6 4 10 3 11 14 23
119 112 102 96 90 79 59 37 50 306 18 354 10 11 15 9 8 4 358 358 21 6 353 92 65 37 18 20 18 15 12 11 11 12 3 11 14 18
116 114 79 67 57 31 346 22 334 344 12 11 9 31 21 7 6 353 359 352 16 21 331 21 52 23 18 27 17 16 12 14 15 14 8 15 19 21
123 114 117 141 99 68 46 44 29 8 41 2 33 24 19 5 6 354 360 350 357 33 330 28 32 46 26 23 14 17 16 13 17 19 14 13 21 24
127 125 127 100 165 109 129 118 88 74 41 16 32 28 7 1 349 351 355 339 358 29 344 15 353 63 36 38 21 16 17 15 15 16 18 13 19 22
121 111 104 106 84 77 122 107 88 68 42 57 37 35 25 355 348 328 332 328 10 44 351 3 357 68 30 34 39 15 15 13 14 16 17 13 17 18
121 99 107 101 52 331 142 124 114 115 121 115 139 207 233 282 341 343 358 7 2 41 19 332 11 352 53 35 31 20 13 6 14 15 18 20 11 22
120 108 55 79 57 4 142 151 122 83 65 70 64 147 224 104 351 16 358 13 9 12 13 322 6 3 34 52 34 22 13 12 13 17 20 18 20 20
136 124 99 69 70 45 9 80 92 107 156 126 76 40 32 49 47 31 14 17 18 20 19 330 12 7 14 32 63 56 38 23 17 18 27 22 22 30
131 109 109 108 76 50 80 338 245 271 92 81 59 44 34 25 42 38 28 28 49 23 14 356 3 6 13 15 31 24 42 41 28 38 23 27 25 24
119 98 121 142 126 106 105 253 249 113 89 78 58 52 43 51 6 27 58 165 125 59 26 31 17 5 14 20 23 22 9 32 46 21 40 29 27 18
118 131 122 104 69 110 174 198 71 51 47 66 58 54 60 55 50 21 28 23 25 39 94 63 34 36 25 20 17 22 17 18 18 41 39 52 41 41
136 145 166 166 154 136 131 122 118 122 81 64 48 41 44 49 55 27 30 26 32 22 21 14 119 72 52 37 22 16 19 16 22 21 20 53 56 46
167 160 160 161 157 147 139 125 117 95 73 67 50 44 52 37 42 35 35 33 30 33 22 18 5 45 138 80 30 16 21 13 12 19 32 30 40 37
170 157 159 154 149 148 139 120 105 88 96 77 62 50 54 73 43 40 30 35 43 42 35 22 21 14 19 32 84 26 23 19 13 10 20 42 34 40
169 158 156 150 153 145 134 128 127 133 115 104 77 66 65 62 65 43 31 25 39 45 47 39 26 8 23 19 28 77 9 31 24 20 3 18 69 128
159 160 150 151 149 141 128 123 122 98 99 108 86 75 64 67 64 57 110 47 332 41 46 40 35 277 359 21 39 36 94 45 46 47 20 15 5 25
158 155 150 149 146 140 134 139 131 166 143 126 95 85 73 61 71 65 33 44 44 49 49 48 29 23 46 15 35 33 32 88 124 117 98 59 22 21
160 154 151 144 145 152 151 141 148 135 130 127 114 95 89 90 85 76 69 61 21 52 21 40 46 43 36 48 22 39 17 38 20 21 77 163 181 236